BCS269 LIMC-EBBR

Flight info

Callsign BCS269
Flight time 1h 11m
Altitude 34000
Route AOSTA DCT ORSUD DCT MOLUS DCT GILIR DCT PENDU DCT IXILU DCT GIVOR/N0422F320 DCT SORAL DCT IBERA N853 DIK Y37 BATTY
Aircraft A333/H-SDE3GHIJ2J3J5M1RVWXY/LB2D1

Departure

Time 2026-05-01 12:12
Airport Milan Malpensa International Airport (LIMC)

Arrival

Time 2026-05-01 13:24
Airport Brussels Airport (EBBR)
Time Latitude Longitude Altitude Speed Heading
2026-05-01 11:40 45.60690 8.72110 730 ft 0 kts 259°
2026-05-01 12:02 45.60690 8.72111 757 ft 1 kts 259°
2026-05-01 12:02 45.60695 8.72142 764 ft 4 kts 248°
2026-05-01 12:02 45.60708 8.72176 749 ft 4 kts 230°
2026-05-01 12:02 45.60727 8.72202 752 ft 4 kts 210°
2026-05-01 12:03 45.60752 8.72216 752 ft 4 kts 186°
2026-05-01 12:03 45.60769 8.72216 754 ft 1 kts 169°
2026-05-01 12:06 45.60765 8.72217 754 ft 2 kts 166°
2026-05-01 12:06 45.60739 8.72229 752 ft 6 kts 166°
2026-05-01 12:06 45.60681 8.72247 753 ft 11 kts 167°
2026-05-01 12:07 45.60634 8.72324 753 ft 12 kts 91°
2026-05-01 12:07 45.60639 8.72455 753 ft 14 kts 89°
2026-05-01 12:07 45.60629 8.72611 753 ft 17 kts 96°
2026-05-01 12:07 45.60614 8.72793 757 ft 20 kts 97°
2026-05-01 12:08 45.60601 8.72990 753 ft 20 kts 96°
2026-05-01 12:08 45.60597 8.73196 752 ft 21 kts 73°
2026-05-01 12:08 45.60708 8.73311 753 ft 21 kts 22°
2026-05-01 12:08 45.60842 8.73388 755 ft 21 kts 20°
2026-05-01 12:09 45.60985 8.73387 754 ft 21 kts 353°
2026-05-01 12:09 45.61126 8.73348 755 ft 21 kts 346°
2026-05-01 12:09 45.61268 8.73304 754 ft 21 kts 348°
2026-05-01 12:09 45.61413 8.73265 756 ft 22 kts 349°
2026-05-01 12:10 45.61560 8.73223 756 ft 21 kts 348°
2026-05-01 12:10 45.61630 8.73407 755 ft 12 kts 93°
2026-05-01 12:10 45.61596 8.73524 752 ft 14 kts 112°
2026-05-01 12:11 45.61698 8.73713 745 ft 9 kts 349°
2026-05-01 12:11 45.61706 8.73711 745 ft 6 kts 349°
2026-05-01 12:11 45.61958 8.73643 745 ft 68 kts 348°
2026-05-01 12:12 45.62617 8.73461 748 ft 123 kts 349°
2026-05-01 12:12 45.63611 8.73182 836 ft 162 kts 348°
2026-05-01 12:12 45.64719 8.72845 1377 ft 172 kts 348°
2026-05-01 12:12 45.65892 8.72384 2159 ft 174 kts 330°
2026-05-01 12:13 45.66632 8.70988 2605 ft 192 kts 283°
2026-05-01 12:13 45.66566 8.68977 2972 ft 217 kts 255°
2026-05-01 12:13 45.66207 8.66760 3243 ft 247 kts 262°
2026-05-01 12:13 45.66083 8.64237 3855 ft 259 kts 269°
2026-05-01 12:14 45.66165 8.61635 4716 ft 264 kts 275°
2026-05-01 12:14 45.66386 8.59024 5632 ft 265 kts 278°
2026-05-01 12:14 45.66683 8.56408 6522 ft 268 kts 280°
2026-05-01 12:14 45.67012 8.53764 7392 ft 272 kts 281°
2026-05-01 12:15 45.67351 8.51077 8198 ft 278 kts 281°
2026-05-01 12:15 45.67688 8.48318 9017 ft 284 kts 280°
2026-05-01 12:15 45.68016 8.45511 9859 ft 290 kts 280°
2026-05-01 12:15 45.68341 8.42626 10568 ft 298 kts 280°
2026-05-01 12:16 45.68675 8.39597 10942 ft 319 kts 279°
2026-05-01 12:16 45.69028 8.36363 11274 ft 338 kts 279°
2026-05-01 12:16 45.69393 8.32999 11888 ft 346 kts 279°
2026-05-01 12:16 45.69764 8.29571 12618 ft 351 kts 279°
2026-05-01 12:17 45.70142 8.26097 13381 ft 355 kts 279°
2026-05-01 12:17 45.70523 8.22578 14088 ft 362 kts 279°
2026-05-01 12:17 45.70908 8.18993 14735 ft 366 kts 279°
2026-05-01 12:17 45.71295 8.15369 15389 ft 371 kts 279°
2026-05-01 12:18 45.71689 8.11694 15972 ft 376 kts 279°
2026-05-01 12:18 45.72084 8.07989 16738 ft 378 kts 279°
2026-05-01 12:18 45.72482 8.04251 17401 ft 382 kts 279°
2026-05-01 12:18 45.72881 8.00483 18091 ft 385 kts 279°
2026-05-01 12:19 45.73284 7.96667 18720 ft 390 kts 279°
2026-05-01 12:19 45.73691 7.92805 19290 ft 393 kts 279°
2026-05-01 12:19 45.74100 7.88917 19871 ft 396 kts 279°
2026-05-01 12:19 45.74510 7.85004 20434 ft 399 kts 279°
2026-05-01 12:20 45.74919 7.81080 21098 ft 399 kts 279°
2026-05-01 12:20 45.75328 7.77142 21673 ft 402 kts 279°
2026-05-01 12:20 45.75740 7.73162 22191 ft 405 kts 279°
2026-05-01 12:20 45.76153 7.69153 22771 ft 408 kts 279°
2026-05-01 12:21 45.76567 7.65127 23285 ft 411 kts 279°
2026-05-01 12:21 45.76983 7.61062 23812 ft 414 kts 278°
2026-05-01 12:21 45.77400 7.56975 24273 ft 416 kts 279°
2026-05-01 12:21 45.77819 7.52859 24716 ft 419 kts 279°
2026-05-01 12:22 45.78239 7.48721 25143 ft 421 kts 278°
2026-05-01 12:22 45.78659 7.44562 25573 ft 423 kts 278°
2026-05-01 12:22 45.79079 7.40387 26000 ft 425 kts 278°
2026-05-01 12:22 45.79567 7.36252 26391 ft 427 kts 286°
2026-05-01 12:23 45.80804 7.32407 26805 ft 427 kts 306°
2026-05-01 12:23 45.82827 7.29306 27205 ft 428 kts 322°
2026-05-01 12:23 45.85300 7.26929 27627 ft 429 kts 330°
2026-05-01 12:23 45.87912 7.24839 28037 ft 431 kts 332°
2026-05-01 12:24 45.90539 7.22753 28411 ft 433 kts 331°
2026-05-01 12:24 45.93142 7.20546 28818 ft 436 kts 329°
2026-05-01 12:24 45.95707 7.18199 29215 ft 438 kts 327°
2026-05-01 12:24 45.98237 7.15742 29614 ft 440 kts 326°
2026-05-01 12:25 46.00753 7.13208 29968 ft 443 kts 324°
2026-05-01 12:25 46.05823 7.07977 30470 ft 452 kts 324°
2026-05-01 12:25 46.08380 7.05327 30816 ft 454 kts 324°
2026-05-01 12:26 46.10949 7.02666 31153 ft 455 kts 324°
2026-05-01 12:26 46.16116 6.97327 31800 ft 459 kts 324°
2026-05-01 12:26 46.18721 6.94637 32109 ft 461 kts 324°
2026-05-01 12:27 46.21328 6.91944 32407 ft 463 kts 324°
2026-05-01 12:27 46.26575 6.86516 33234 ft 462 kts 323°
2026-05-01 12:28 46.31783 6.81115 34087 ft 460 kts 323°
2026-05-01 12:28 46.34378 6.78417 34275 ft 455 kts 323°
2026-05-01 12:28 46.39365 6.73228 34292 ft 431 kts 323°
2026-05-01 12:29 46.41789 6.70701 34292 ft 429 kts 323°
2026-05-01 12:29 46.49595 6.64283 34292 ft 432 kts 333°
2026-05-01 12:30 46.57706 6.58564 34293 ft 432 kts 333°
2026-05-01 12:31 46.63141 6.54826 34294 ft 432 kts 338°
2026-05-01 12:31 46.68963 6.52712 34292 ft 433 kts 352°
2026-05-01 12:32 46.74949 6.51678 34289 ft 433 kts 353°
2026-05-01 12:32 46.83985 6.50237 34280 ft 438 kts 353°
2026-05-01 12:33 46.90053 6.49270 34281 ft 439 kts 353°
2026-05-01 12:33 46.96118 6.48303 34280 ft 438 kts 353°
2026-05-01 12:34 47.02184 6.47332 34280 ft 438 kts 353°
2026-05-01 12:34 47.08248 6.46360 34278 ft 438 kts 353°
2026-05-01 12:35 47.14318 6.45384 34278 ft 439 kts 353°
2026-05-01 12:35 47.20343 6.44414 34270 ft 439 kts 353°
2026-05-01 12:36 47.26404 6.43436 34274 ft 437 kts 353°
2026-05-01 12:36 47.32453 6.42457 34271 ft 437 kts 353°
2026-05-01 12:37 47.38498 6.41477 34274 ft 437 kts 353°
2026-05-01 12:37 47.44542 6.40495 34274 ft 437 kts 354°
2026-05-01 12:38 47.50577 6.39512 34271 ft 436 kts 354°
2026-05-01 12:38 47.56610 6.38526 34269 ft 436 kts 353°
2026-05-01 12:39 47.62646 6.37537 34266 ft 436 kts 354°
2026-05-01 12:39 47.68668 6.36550 34265 ft 435 kts 354°
2026-05-01 12:40 47.74683 6.35561 34264 ft 435 kts 354°
2026-05-01 12:40 47.80705 6.34568 34264 ft 435 kts 354°
2026-05-01 12:41 47.86727 6.33573 34273 ft 436 kts 354°
2026-05-01 12:41 47.92786 6.32569 34272 ft 439 kts 354°
2026-05-01 12:42 47.98859 6.31560 34269 ft 439 kts 354°
2026-05-01 12:42 48.03906 6.30721 34270 ft 439 kts 354°
2026-05-01 12:43 48.09977 6.29708 34264 ft 438 kts 354°
2026-05-01 12:43 48.16039 6.28694 34264 ft 438 kts 354°
2026-05-01 12:44 48.22093 6.27680 34266 ft 438 kts 354°
2026-05-01 12:45 48.34195 6.25645 34265 ft 436 kts 354°
2026-05-01 12:45 48.40225 6.24627 34267 ft 436 kts 354°
2026-05-01 12:46 48.46239 6.23610 34267 ft 436 kts 354°
2026-05-01 12:46 48.52269 6.22587 34265 ft 435 kts 353°
2026-05-01 12:47 48.58281 6.21565 34265 ft 435 kts 353°
2026-05-01 12:47 48.64292 6.20541 34264 ft 435 kts 353°
2026-05-01 12:48 48.70264 6.19521 34265 ft 435 kts 353°
2026-05-01 12:48 48.76277 6.18491 34265 ft 435 kts 353°
2026-05-01 12:49 48.82286 6.17460 34266 ft 435 kts 353°
2026-05-01 12:49 48.88299 6.16427 34291 ft 435 kts 353°
2026-05-01 12:50 48.94309 6.15391 34292 ft 435 kts 353°
2026-05-01 12:50 49.00334 6.14349 34293 ft 437 kts 353°
2026-05-01 12:51 49.06380 6.13301 34290 ft 437 kts 353°
2026-05-01 12:52 49.15449 6.11726 34283 ft 437 kts 353°
2026-05-01 12:52 49.24517 6.10145 34268 ft 437 kts 353°
2026-05-01 12:53 49.33584 6.08557 34275 ft 437 kts 353°
2026-05-01 12:54 49.39634 6.07495 34275 ft 437 kts 353°
2026-05-01 12:54 49.48711 6.05896 34283 ft 437 kts 353°
2026-05-01 12:55 49.57783 6.04292 34288 ft 437 kts 353°
2026-05-01 12:56 49.63830 6.03220 34290 ft 437 kts 353°
2026-05-01 12:56 49.69866 6.02146 34288 ft 436 kts 353°
2026-05-01 12:57 49.75902 6.01070 34280 ft 436 kts 353°
2026-05-01 12:57 49.84949 5.99453 34274 ft 436 kts 353°
2026-05-01 12:58 49.90978 5.98372 34266 ft 437 kts 353°
2026-05-01 12:59 50.00019 5.96745 34259 ft 437 kts 353°
2026-05-01 12:59 50.09072 5.95108 33435 ft 439 kts 353°
2026-05-01 13:00 50.15157 5.94005 31933 ft 444 kts 353°
2026-05-01 13:00 50.18232 5.93447 31361 ft 444 kts 354°
2026-05-01 13:01 50.24331 5.92338 30417 ft 439 kts 354°
2026-05-01 13:01 50.27365 5.91785 29865 ft 438 kts 354°
2026-05-01 13:01 50.33326 5.90697 28867 ft 431 kts 354°
2026-05-01 13:02 50.36294 5.90154 28373 ft 427 kts 354°
2026-05-01 13:07 50.79164 5.40426 18056 ft 388 kts 295°
2026-05-01 13:07 50.80366 5.36634 17579 ft 384 kts 295°
2026-05-01 13:07 50.81550 5.32894 17269 ft 373 kts 295°
2026-05-01 13:08 50.82683 5.29317 16881 ft 355 kts 295°
2026-05-01 13:08 50.83772 5.25871 16300 ft 347 kts 295°
2026-05-01 13:08 50.84844 5.22468 15784 ft 345 kts 294°
2026-05-01 13:08 50.85907 5.19090 15552 ft 338 kts 294°
2026-05-01 13:09 50.86919 5.15844 15313 ft 321 kts 292°
2026-05-01 13:09 50.87639 5.12544 14665 ft 317 kts 277°
2026-05-01 13:09 50.87907 5.09003 14189 ft 335 kts 271°
2026-05-01 13:09 50.88074 5.05256 13747 ft 343 kts 270°
2026-05-01 13:10 50.88230 5.01493 13322 ft 341 kts 270°
2026-05-01 13:10 50.88388 4.97757 12912 ft 339 kts 270°
2026-05-01 13:10 50.88547 4.94038 12494 ft 337 kts 271°
2026-05-01 13:10 50.88704 4.90391 12073 ft 336 kts 270°
2026-05-01 13:11 50.88863 4.86712 11655 ft 334 kts 270°
2026-05-01 13:11 50.89019 4.83048 11263 ft 332 kts 270°
2026-05-01 13:11 50.89174 4.79412 10869 ft 330 kts 270°
2026-05-01 13:11 50.89327 4.75815 10637 ft 322 kts 270°
2026-05-01 13:12 50.89476 4.72358 10554 ft 308 kts 270°
2026-05-01 13:12 50.89617 4.69030 10448 ft 297 kts 270°
2026-05-01 13:12 50.89751 4.65816 10288 ft 289 kts 270°
2026-05-01 13:12 50.89880 4.62674 10073 ft 285 kts 270°
2026-05-01 13:13 50.90007 4.59541 9696 ft 286 kts 270°
2026-05-01 13:13 50.90134 4.56402 9377 ft 285 kts 270°
2026-05-01 13:13 50.90306 4.53288 9058 ft 284 kts 274°
2026-05-01 13:13 50.90562 4.50195 8760 ft 282 kts 275°
2026-05-01 13:14 50.90836 4.47121 8453 ft 281 kts 275°
2026-05-01 13:14 50.91110 4.44073 8142 ft 279 kts 275°
2026-05-01 13:14 50.91383 4.41029 7825 ft 278 kts 276°
2026-05-01 13:14 50.91654 4.37994 7505 ft 277 kts 276°
2026-05-01 13:15 50.91922 4.34985 7219 ft 276 kts 275°
2026-05-01 13:15 50.92188 4.31971 6901 ft 275 kts 276°
2026-05-01 13:15 50.92452 4.28984 6592 ft 273 kts 275°
2026-05-01 13:15 50.92714 4.26012 6276 ft 271 kts 276°
2026-05-01 13:16 50.92974 4.23054 5954 ft 270 kts 275°
2026-05-01 13:16 50.93231 4.20121 5658 ft 268 kts 275°
2026-05-01 13:16 50.93382 4.17188 5341 ft 266 kts 264°
2026-05-01 13:17 50.90427 4.10360 4198 ft 259 kts 216°
2026-05-01 13:17 50.88896 4.08928 3900 ft 254 kts 199°
2026-05-01 13:18 50.85489 4.09124 3282 ft 251 kts 158°
2026-05-01 13:18 50.83902 4.10260 3040 ft 251 kts 151°
2026-05-01 13:18 50.82539 4.11933 2983 ft 245 kts 131°
2026-05-01 13:18 50.81772 4.14192 2999 ft 232 kts 107°
2026-05-01 13:19 50.81686 4.16693 2998 ft 222 kts 83°
2026-05-01 13:19 50.82147 4.18986 2999 ft 218 kts 70°
2026-05-01 13:19 50.83345 4.23081 3023 ft 184 kts 68°
2026-05-01 13:20 50.83866 4.24824 2962 ft 168 kts 69°
2026-05-01 13:20 50.84344 4.26436 2784 ft 156 kts 68°
2026-05-01 13:20 50.84787 4.27944 2569 ft 146 kts 69°
2026-05-01 13:21 50.85605 4.30752 2196 ft 140 kts 70°
2026-05-01 13:21 50.86012 4.32154 1990 ft 140 kts 70°
2026-05-01 13:21 50.86419 4.33561 1794 ft 141 kts 70°
2026-05-01 13:21 50.86824 4.34961 1604 ft 138 kts 69°
2026-05-01 13:22 50.87223 4.36335 1415 ft 136 kts 70°
2026-05-01 13:22 50.87615 4.37688 1265 ft 135 kts 70°
2026-05-01 13:22 50.88002 4.39029 1062 ft 133 kts 69°
2026-05-01 13:22 50.88385 4.40363 891 ft 133 kts 69°
2026-05-01 13:23 50.88769 4.41692 733 ft 132 kts 69°
2026-05-01 13:23 50.89152 4.43015 546 ft 133 kts 71°
2026-05-01 13:23 50.89544 4.44315 358 ft 130 kts 69°
2026-05-01 13:23 50.89912 4.45636 207 ft 131 kts 65°
2026-05-01 13:24 50.90280 4.46899 125 ft 110 kts 65°
2026-05-01 13:24 50.90481 4.47603 124 ft 44 kts 66°
2026-05-01 13:24 50.90603 4.48036 122 ft 39 kts 65°
2026-05-01 13:25 50.90593 4.48453 120 ft 8 kts 144°
2026-05-01 13:25 50.90544 4.48438 122 ft 8 kts 227°
2026-05-01 13:25 50.90509 4.48331 121 ft 17 kts 245°
2026-05-01 13:25 50.90449 4.48122 122 ft 23 kts 245°
2026-05-01 13:26 50.90381 4.47887 120 ft 24 kts 245°
2026-05-01 13:26 50.90310 4.47640 121 ft 25 kts 245°
2026-05-01 13:26 50.90236 4.47385 122 ft 25 kts 245°
2026-05-01 13:26 50.90176 4.47167 125 ft 14 kts 257°
2026-05-01 13:27 50.90186 4.47074 127 ft 0 kts 293°
2026-05-01 13:31 50.90217 4.46963 121 ft 17 kts 296°
2026-05-01 13:31 50.90330 4.46291 137 ft 20 kts 245°
2026-05-01 13:32 50.90255 4.45978 141 ft 7 kts 296°
2026-05-01 13:33 50.90316 4.45916 141 ft 0 kts 336°